Weather History for Mansfield, OH

Change the Weather History Date:

Sunday, March 30, 2014

  Actual Average Record
Temperature  
Mean Temperature 35 °F 42 °F  
Max Temperature 44 °F 52 °F 82 °F (1986)
Min Temperature 25 °F 33 °F 12 °F (1941)
Degree Days  
Heating Degree Days 30 23  
Month to date heating degree days 1007 844  
Since 1 July heating degree days 6051 5469  
Cooling Degree Days 0 0  
Month to date cooling degree days 0 0  
Year to date cooling degree days 0 0  
Moisture  
Dew Point 24 °F    
Average Humidity 69    
Maximum Humidity 92    
Minimum Humidity 45    
Precipitation  
Precipitation 0.00 in 0.13 in 1.98 in (1987)
Month to date precipitation 1.84 3.26  
Year to date precipitation 6.17 8.52  
Snow  
Snow 0.00 in 0.20 in - ()
Month to date snowfall 10.5 7.7  
Since 1 July snowfall 63.3 45.6  
Snow Depth 2.00 in    
Sea Level Pressure  
Sea Level Pressure 30.11 in    
Wind  
Wind Speed 11 mph (NNW)    
Max Wind Speed 22 mph    
Max Gust Speed 28 mph    
Visibility 9 miles    
Events      
T = Trace of Precipitation, MM = Missing Value Source: NWS Daily Summary

Daily Weather History Graph

Daily Weather History Graph

Search for Another Location

Airport:

Trip Planner

Search our weather history database for the weather conditions in past years. The results will help you decide how hot, cold, wet, or windy it might be!

Date:

Astronomy

Mar. 30, 2014 Rise Set
Actual Time 7:16 AM EDT 7:52 PM EDT
Civil Twilight 6:49 AM EDT 8:20 PM EDT
Nautical Twilight 6:16 AM EDT 8:53 PM EDT
Astronomical Twilight 5:43 AM EDT 9:26 PM EDT
Moon 7:01 AM EDT (3/30) 8:04 PM EDT (3/30)
Length of Visible Light 13h 31m
Length of Day
12h 35m
Waning Crescent, 0% of the Moon is Illuminated
Mar 30
Waning Crescent
Mar 30
New
Apr 7
First Quarter
Apr 15
Full
Apr 22
Last Quarter

Hourly Weather History & Observations

Time (EDT) Temp. Windchill Dew Point Humidity Pressure Visibility Wind Dir Wind Speed Gust Speed Precip Events Conditions
12:25 AM 30.2 °F 18.5 °F 28.4 °F 93% 30.00 in 4.0 mi North 17.3 mph 28.8 mph 0.00 in   Overcast
12:52 AM 30.9 °F 19.8 °F 28.9 °F 92% 30.05 in 5.0 mi NNW 16.1 mph 25.3 mph 0.00 in   Overcast
1:31 AM 30.2 °F 18.1 °F 28.4 °F 93% 30.02 in 6.0 mi NNW 18.4 mph 26.5 mph N/A   Overcast
1:52 AM 30.0 °F 17.9 °F 28.9 °F 96% 30.06 in 7.0 mi NNW 18.4 mph 25.3 mph N/A   Overcast
2:52 AM 30.0 °F 17.9 °F 28.0 °F 92% 30.07 in 8.0 mi NNW 18.4 mph 26.5 mph N/A   Overcast
3:52 AM 30.0 °F 18.3 °F 27.0 °F 88% 30.06 in 10.0 mi NNW 17.3 mph - N/A   Overcast
4:08 AM 28.4 °F 16.6 °F 26.6 °F 93% 30.03 in 10.0 mi NNW 16.1 mph - N/A   Overcast
4:29 AM 28.4 °F 15.4 °F 26.6 °F 93% 30.03 in 10.0 mi NNW 19.6 mph 27.6 mph N/A   Overcast
4:52 AM 28.9 °F 16.5 °F 26.1 °F 89% 30.08 in 10.0 mi NNW 18.4 mph - N/A   Overcast
5:52 AM 27.0 °F 15.2 °F 23.0 °F 85% 30.10 in 10.0 mi NW 15.0 mph - N/A   Partly Cloudy
6:52 AM 26.1 °F 13.6 °F 21.9 °F 84% 30.12 in 10.0 mi NW 16.1 mph - N/A   Clear
7:52 AM 25.0 °F 12.6 °F 21.0 °F 85% 30.13 in 10.0 mi NW 15.0 mph - N/A   Clear
8:52 AM 27.0 °F 15.6 °F 19.9 °F 75% 30.15 in 10.0 mi NW 13.8 mph - N/A   Clear
9:52 AM 28.9 °F 18.6 °F 19.9 °F 69% 30.16 in 10.0 mi NW 12.7 mph - N/A   Clear
10:52 AM 30.9 °F 19.4 °F 19.9 °F 64% 30.16 in 10.0 mi NW 17.3 mph - N/A   Clear
11:52 AM 32.0 °F 21.6 °F 19.0 °F 59% 30.16 in 10.0 mi NNW 15.0 mph - N/A   Clear
12:52 PM 34.0 °F 24.2 °F 19.0 °F 54% 30.17 in 10.0 mi NNW 15.0 mph - N/A   Clear
1:52 PM 36.0 °F 27.5 °F 21.0 °F 55% 30.16 in 10.0 mi NW 12.7 mph - N/A   Clear
2:52 PM 39.0 °F 31.8 °F 26.1 °F 60% 30.14 in 10.0 mi NW 11.5 mph - N/A   Clear
3:52 PM 41.0 °F 34.3 °F 27.0 °F 57% 30.14 in 10.0 mi NW 11.5 mph - N/A   Clear
4:52 PM 42.1 °F 34.9 °F 26.1 °F 53% 30.14 in 10.0 mi NW 13.8 mph - N/A   Clear
5:52 PM 44.1 °F 39.0 °F 24.1 °F 45% 30.13 in 10.0 mi NNW 9.2 mph - N/A   Clear
6:52 PM 43.0 °F 38.8 °F 23.0 °F 45% 30.14 in 10.0 mi NNW 6.9 mph - N/A   Clear
7:52 PM 41.0 °F - 21.0 °F 45% 30.14 in 10.0 mi Calm Calm - N/A   Clear
8:52 PM 39.0 °F - 21.0 °F 49% 30.15 in 10.0 mi Calm Calm - N/A   Clear
9:52 PM 35.1 °F - 21.9 °F 59% 30.16 in 10.0 mi Calm Calm - N/A   Clear
10:52 PM 33.1 °F - 21.9 °F 64% 30.17 in 10.0 mi Calm Calm - N/A   Clear
11:52 PM 30.9 °F - 24.1 °F 76% 30.18 in 10.0 mi Calm Calm - N/A   Clear